Retour au catalogue

STARLINK-1730

ActifCommunicationsVLEO
NORAD 46563·PAYLOAD·🇺🇸 United States

Lancé Oct 6, 2020 depuis Cape Canaveral Space Force Station

Loading…

Prochains Passages (prochaines 24 heures)

TLE

FraisSource: CelesTrak SupGP

Époque: Sep 14, 2026, 22:16 UTC

1 46563C 20070AH  26257.92826389  .00191290  00000+0  10107-2 0  2571
2 46563  53.0152 277.9995 0004201  14.6902  50.0232 15.79801600    19

Suivez STARLINK-1730 en temps réel avec AllMySat

Download on the App Store